Weather History for Hilton Head Island, SC

Change the Weather History Date:

Sunday, January 6, 2013

  Actual Average Record
Temperature  
Mean Temperature 50 °F -  
Max Temperature 51 °F 60 °F - (-1)
Min Temperature 48 °F 38 °F - (-1)
Degree Days  
Heating Degree Days 16    
Moisture  
Dew Point 48 °F    
Average Humidity 97    
Maximum Humidity 100    
Minimum Humidity 82    
Precipitation  
Precipitation 0.00 in - - ()
Sea Level Pressure  
Sea Level Pressure 30.22 in    
Wind  
Wind Speed 2 mph (WNW)    
Max Wind Speed 7 mph    
Max Gust Speed -    
Visibility 9 miles    
Events Rain    
Averages and records for this station are not official NWS values.
T = Trace of Precipitation, MM = Missing Value Source: NWS Daily Summary

Daily Weather History Graph

Daily Weather History Graph

Search for Another Location

Airport:

Trip Planner

Search our weather history database for the weather conditions in past years. The results will help you decide how hot, cold, wet, or windy it might be!

Date:

Astronomy

Jan. 06, 2013 Rise Set
Actual Time 7:24 AM EST 5:33 PM EST
Civil Twilight 6:57 AM EST 5:59 PM EST
Nautical Twilight 6:27 AM EST 6:30 PM EST
Astronomical Twilight 5:57 AM EST 7:00 PM EST
Moon 1:45 AM EST (1/6) 12:53 PM EST (1/6)
Length of Visible Light 11h 02m
Length of Day
10h 08m
Waning Crescent, 33% of the Moon is Illuminated
Jan 6
Waning Crescent
Jan 11
New
Jan 18
First Quarter
Jan 26
Full
Feb 3
Last Quarter

Hourly Weather History & Observations

Time (EST) Temp. Dew Point Humidity Pressure Visibility Wind Dir Wind Speed Gust Speed Precip Events Conditions
12:15 AM 48.2 °F 48.2 °F 100% 30.30 in 10.0 mi Calm Calm - 0.00 in   Partly Cloudy
12:35 AM 48.2 °F 48.2 °F 100% 30.29 in 10.0 mi Calm Calm - 0.00 in   Clear
12:55 AM 48.2 °F 48.2 °F 100% 30.28 in 10.0 mi North 3.5 mph - 0.00 in   Partly Cloudy
1:15 AM 48.2 °F 48.2 °F 100% 30.27 in 10.0 mi North 4.6 mph - 0.00 in   Clear
1:35 AM 48.2 °F 48.2 °F 100% 30.27 in 10.0 mi Calm Calm - 0.00 in   Clear
1:55 AM 48.2 °F 48.2 °F 100% 30.28 in 10.0 mi NNW 3.5 mph - 0.00 in   Clear
2:15 AM 48.2 °F 48.2 °F 100% 30.27 in 10.0 mi North 3.5 mph - 0.00 in   Clear
2:35 AM 48.2 °F 48.2 °F 100% 30.26 in 10.0 mi North 3.5 mph - 0.00 in   Clear
2:55 AM 48.2 °F 48.2 °F 100% 30.25 in 10.0 mi North 3.5 mph - 0.00 in   Clear
3:15 AM 48.2 °F 48.2 °F 100% 30.24 in 10.0 mi NNE 3.5 mph - 0.00 in   Clear
3:35 AM 48.2 °F 48.2 °F 100% 30.24 in 10.0 mi Calm Calm - 0.00 in   Clear
3:55 AM 48.2 °F 48.2 °F 100% 30.23 in 10.0 mi Calm Calm - 0.00 in   Light Drizzle
4:15 AM 48.2 °F 48.2 °F 100% 30.23 in 10.0 mi Calm Calm - 0.00 in   Clear
4:35 AM 48.2 °F 48.2 °F 100% 30.22 in 10.0 mi Calm Calm - 0.00 in   Scattered Clouds
4:55 AM 48.2 °F 48.2 °F 100% 30.20 in 10.0 mi Calm Calm - 0.00 in   Partly Cloudy
5:15 AM 48.2 °F 48.2 °F 100% 30.22 in 10.0 mi Calm Calm - 0.00 in   Scattered Clouds
5:35 AM 48.2 °F 48.2 °F 100% 30.21 in 10.0 mi Calm Calm - 0.00 in   Mostly Cloudy
6:50 AM 50.0 °F 46.4 °F 87% 30.21 in 7.0 mi Calm Calm - N/A   Overcast
7:50 AM 50.0 °F 46.4 °F 87% 30.22 in 10.0 mi Calm Calm - N/A   Overcast
8:50 AM 50.0 °F 46.4 °F 87% 30.25 in 10.0 mi Calm Calm - N/A   Overcast
9:50 AM 51.8 °F 48.2 °F 88% 30.24 in 10.0 mi Calm Calm - N/A   Overcast
10:50 AM 51.8 °F 48.2 °F 88% 30.25 in 10.0 mi North 5.8 mph - N/A   Overcast
11:50 AM 51.8 °F 46.4 °F 82% 30.21 in 10.0 mi North 6.9 mph - N/A   Overcast
1:49 PM 51.8 °F 46.4 °F 82% 30.18 in 2.0 mi West 6.9 mph - N/A Rain Rain
2:50 PM 48.2 °F 46.4 °F 93% 30.17 in 1.5 mi West 3.5 mph - N/A Rain Light Rain
4:50 PM 50.0 °F 46.4 °F 87% 30.17 in 1.5 mi West 3.5 mph - N/A   Drizzle
5:50 PM 50.0 °F 48.2 °F 94% 30.14 in 7.0 mi Calm Calm - N/A   Overcast
6:50 PM 50.0 °F 48.2 °F 94% 30.16 in 10.0 mi WSW 3.5 mph - N/A   Partly Cloudy
7:58 PM 50.0 °F 48.2 °F 94% 30.17 in 10.0 mi WSW 3.5 mph - N/A   Mostly Cloudy
8:15 PM 48.2 °F 48.2 °F 100% 30.17 in 10.0 mi WSW 5.8 mph - 0.00 in   Mostly Cloudy
8:35 PM 48.2 °F 48.2 °F 100% 30.17 in 10.0 mi SW 4.6 mph - 0.00 in   Mostly Cloudy
8:50 PM 50.0 °F 48.2 °F 94% 30.17 in 10.0 mi WSW 5.8 mph - N/A   Mostly Cloudy
8:55 PM 48.2 °F 48.2 °F 100% 30.17 in 10.0 mi SW 3.5 mph - 0.00 in   Overcast
9:15 PM 48.2 °F 48.2 °F 100% 30.18 in 10.0 mi West 6.9 mph - 0.00 in   Overcast
9:35 PM 48.2 °F 48.2 °F 100% 30.18 in 10.0 mi West 3.5 mph - 0.00 in   Mostly Cloudy
10:15 PM 50.0 °F 50.0 °F 100% 30.19 in 10.0 mi West 5.8 mph - 0.00 in   Mostly Cloudy
10:35 PM 51.8 °F 51.8 °F 100% 30.19 in 10.0 mi West 6.9 mph - 0.00 in   Overcast
10:55 PM 51.8 °F 51.8 °F 100% 30.20 in 10.0 mi West 6.9 mph - 0.00 in   Overcast
11:15 PM 51.8 °F 51.8 °F 100% 30.20 in 10.0 mi West 6.9 mph - 0.00 in   Overcast
11:35 PM 51.8 °F 51.8 °F 100% 30.20 in 10.0 mi West 6.9 mph - 0.00 in   Overcast
11:55 PM 51.8 °F 51.8 °F 100% 30.21 in 10.0 mi West 5.8 mph - 0.00 in   Overcast